DAL1474 KLEX-KATL

Flight info

Callsign DAL1474
Flight time N/A
Altitude 31000
Route CLEGG IIU BWG HITMN NEWBB IHAVE MTHEW CHPPR1
Aircraft B738/M-SDE2E3FGHIRWXY/LB1

Departure

Time 2026-04-28 17:37
Airport Blue Grass Airport (KLEX)

Arrival

Time N/A
Airport Hartsfield Jackson Atlanta International Airport (KATL)
Time Latitude Longitude Altitude Speed Heading
2026-04-28 17:12 38.03626 -84.59878 977 ft 0 kts 303°
2026-04-28 17:28 38.03622 -84.59870 976 ft 2 kts 301°
2026-04-28 17:28 38.03613 -84.59852 987 ft 2 kts 301°
2026-04-28 17:29 38.03605 -84.59834 984 ft 2 kts 297°
2026-04-28 17:29 38.03598 -84.59815 982 ft 2 kts 285°
2026-04-28 17:29 38.03598 -84.59795 981 ft 2 kts 234°
2026-04-28 17:30 38.03604 -84.59785 979 ft 0 kts 218°
2026-04-28 17:32 38.03601 -84.59789 980 ft 2 kts 218°
2026-04-28 17:32 38.03575 -84.59812 984 ft 6 kts 215°
2026-04-28 17:32 38.03543 -84.59848 980 ft 6 kts 226°
2026-04-28 17:32 38.03521 -84.59893 978 ft 6 kts 248°
2026-04-28 17:33 38.03517 -84.59946 978 ft 7 kts 274°
2026-04-28 17:33 38.03535 -84.60013 985 ft 10 kts 306°
2026-04-28 17:33 38.03599 -84.60072 974 ft 13 kts 330°
2026-04-28 17:33 38.03656 -84.60102 980 ft 14 kts 347°
2026-04-28 17:34 38.03780 -84.60099 983 ft 13 kts 29°
2026-04-28 17:34 38.03853 -84.60032 979 ft 13 kts 41°
2026-04-28 17:34 38.03901 -84.59996 982 ft 8 kts 355°
2026-04-28 17:34 38.03955 -84.59996 981 ft 9 kts 31°
2026-04-28 17:35 38.04015 -84.59930 986 ft 14 kts 41°
2026-04-28 17:35 38.04093 -84.59842 984 ft 14 kts 39°
2026-04-28 17:35 38.04158 -84.59849 984 ft 10 kts 317°
2026-04-28 17:35 38.04182 -84.59879 982 ft 2 kts 314°
2026-04-28 17:36 38.04193 -84.59914 989 ft 4 kts 245°
2026-04-28 17:36 38.04182 -84.59931 986 ft 1 kts 226°
2026-04-28 17:36 38.04047 -84.60084 983 ft 65 kts 221°
2026-04-28 17:36 38.03508 -84.60686 965 ft 139 kts 221°
2026-04-28 17:37 38.02632 -84.61662 1176 ft 182 kts 221°
2026-04-28 17:37 38.01716 -84.62716 2262 ft 171 kts 227°
2026-04-28 17:37 38.00984 -84.63882 3199 ft 175 kts 233°
2026-04-28 17:37 38.00190 -84.65242 3567 ft 205 kts 234°
2026-04-28 17:38 37.99349 -84.66794 3924 ft 226 kts 237°
2026-04-28 17:38 37.98565 -84.68600 4403 ft 240 kts 249°
2026-04-28 17:38 37.98043 -84.70697 4772 ft 265 kts 253°
2026-04-28 17:38 37.97602 -84.73121 5160 ft 284 kts 267°
2026-04-28 17:39 37.97867 -84.75480 6622 ft 265 kts 284°
2026-04-28 17:39 37.98345 -84.77791 7529 ft 273 kts 283°
2026-04-28 17:39 37.99237 -84.82582 9124 ft 284 kts 282°
2026-04-28 17:40 37.99589 -84.85032 10104 ft 282 kts 274°
2026-04-28 17:40 37.99428 -84.87539 10676 ft 296 kts 250°
2026-04-28 17:40 37.98198 -84.89846 9844 ft 353 kts 217°
2026-04-28 17:40 37.95998 -84.91631 9867 ft 381 kts 212°
2026-04-28 17:41 37.93731 -84.93459 10784 ft 390 kts 213°
2026-04-28 17:41 37.91939 -84.94943 12030 ft 383 kts 213°